owner,sensor,date,latitude,longitude,vertical_datum,direction_of_sea_water_velocity,sea_water_speed,upward_sea_water_velocity,qcFlag 
TABS,ioos:station:wmo:42047:1,2009-01-01T00:00:00Z,27.8966,-93.5973,2.0,336.013553649,16.9979116364,-99999.0,'1111122,1111122,1199999999' 
TABS,ioos:station:wmo:42047:1,2009-01-01T00:30:00Z,27.8966,-93.5973,2.0,338.988931823,14.0009035423,-99999.0,'1111122,1111122,1199999999' 
TABS,ioos:station:wmo:42047:1,2009-01-01T01:00:00Z,27.8966,-93.5973,2.0,335.998719034,11.997333037,-99999.0,'1111122,1111122,1199999999' 
TABS,ioos:station:wmo:42047:1,2009-01-01T01:30:00Z,27.8966,-93.5973,2.0,334.995692086,11.0010635849,-99999.0,'1111122,1111122,1199999999' 
TABS,ioos:station:wmo:42047:1,2009-01-01T02:00:00Z,27.8966,-93.5973,2.0,340.991508791,12.0046074488,-99999.0,'1111122,1111122,1199999999' 
TABS,ioos:station:wmo:42047:1,2009-01-01T02:30:00Z,27.8966,-93.5973,2.0,341.001372306,9.00027777349,-99999.0,'1111122,1111122,1199999999' 
TABS,ioos:station:wmo:42047:1,2009-01-01T03:00:00Z,27.8966,-93.5973,2.0,342.007947187,9.00011111043,-99999.0,'1111122,1111122,1199999999' 
TABS,ioos:station:wmo:42047:1,2009-01-01T03:30:00Z,27.8966,-93.5973,2.0,355.987828845,10.0045189789,-99999.0,'1111122,1111122,1199999999' 
TABS,ioos:station:wmo:42047:1,2009-01-01T04:00:00Z,27.8966,-93.5973,2.0,355.987828845,10.0045189789,-99999.0,'1111122,1111122,1199999999' 
TABS,ioos:station:wmo:42047:1,2009-01-01T04:30:00Z,27.8966,-93.5973,2.0,0.0,7.0,-99999.0,'1111122,1114422,1199999999' 
TABS,ioos:station:wmo:42047:1,2009-01-01T05:00:00Z,27.8966,-93.5973,2.0,353.027230714,7.00178548657,-99999.0,'1111122,1111122,1199999999' 
TABS,ioos:station:wmo:42047:1,2009-01-01T05:30:00Z,27.8966,-93.5973,2.0,353.976006918,8.00419889808,-99999.0,'1111122,1111122,1199999999' 
TABS,ioos:station:wmo:42047:1,2009-01-01T06:00:00Z,27.8966,-93.5973,2.0,346.989269274,7.99525484272,-99999.0,'1111122,1111122,1199999999' 
TABS,ioos:station:wmo:42047:1,2009-01-01T06:30:00Z,27.8966,-93.5973,2.0,341.001372306,9.00027777349,-99999.0,'1111122,1111122,1199999999' 
TABS,ioos:station:wmo:42047:1,2009-01-01T07:00:00Z,27.8966,-93.5973,2.0,349.982065526,10.0025046863,-99999.0,'1111122,1111122,1199999999' 
TABS,ioos:station:wmo:42047:1,2009-01-01T07:30:00Z,27.8966,-93.5973,2.0,349.982065526,10.0025046863,-99999.0,'1111122,1111122,1199999999' 
TABS,ioos:station:wmo:42047:1,2009-01-01T08:00:00Z,27.8966,-93.5973,2.0,353.976006918,8.00419889808,-99999.0,'1111122,1111122,1199999999' 
TABS,ioos:station:wmo:42047:1,2009-01-01T08:30:00Z,27.8966,-93.5973,2.0,354.004324067,8.99922774465,-99999.0,'1111122,1111122,1199999999' 
TABS,ioos:station:wmo:42047:1,2009-01-01T09:00:00Z,27.8966,-93.5973,2.0,348.003100692,8.99649376146,-99999.0,'1111122,1111122,1199999999' 
TABS,ioos:station:wmo:42047:1,2009-01-01T09:30:00Z,27.8966,-93.5973,2.0,0.0,8.0,-99999.0,'1111122,1114422,1199999999' 
TABS,ioos:station:wmo:42047:1,2009-01-01T10:00:00Z,27.8966,-93.5973,2.0,7.97812451559,7.99740582939,-99999.0,'1111122,1111122,1199999999' 
TABS,ioos:station:wmo:42047:1,2009-01-01T10:30:00Z,27.8966,-93.5973,2.0,15.079133975,3.99764930928,-99999.0,'1111122,1111122,1199999999' 
TABS,ioos:station:wmo:42047:1,2009-01-01T11:00:00Z,27.8966,-93.5973,2.0,22.9727213308,4.99624859269,-99999.0,'1111122,1111122,1199999999' 
TABS,ioos:station:wmo:42047:1,2009-01-01T11:30:00Z,27.8966,-93.5973,2.0,27.0777514029,3.99824961702,-99999.0,'1111122,1111122,1199999999' 
TABS,ioos:station:wmo:42047:1,2009-01-01T12:00:00Z,27.8966,-93.5973,2.0,65.0349735381,4.00412287524,-99999.0,'1111122,1111122,1199999999' 
TABS,ioos:station:wmo:42047:1,2009-01-01T12:30:00Z,27.8966,-93.5973,2.0,69.0282894389,5.00129983104,-99999.0,'1111122,1111122,1199999999' 
TABS,ioos:station:wmo:42047:1,2009-01-01T13:00:00Z,27.8966,-93.5973,2.0,77.0053832081,4.00249921924,-99999.0,'1111122,1111122,1199999999' 
TABS,ioos:station:wmo:42047:1,2009-01-01T13:30:00Z,27.8966,-93.5973,2.0,65.0349735381,4.00412287524,-99999.0,'1111122,1111122,1199999999' 
TABS,ioos:station:wmo:42047:1,2009-01-01T14:00:00Z,27.8966,-93.5973,2.0,56.9460843142,3.99686126855,-99999.0,'1111122,1111122,1199999999' 
TABS,ioos:station:wmo:42047:1,2009-01-01T14:30:00Z,27.8966,-93.5973,2.0,71.927677851,2.99789926449,-99999.0,'1111122,1111122,1199999999' 
TABS,ioos:station:wmo:42047:1,2009-01-01T15:00:00Z,27.8966,-93.5973,2.0,117.077751403,1.99912480851,-99999.0,'1111122,1111122,1199999999' 
TABS,ioos:station:wmo:42047:1,2009-01-01T15:30:00Z,27.8966,-93.5973,2.0,135.0,1.00409162928,-99999.0,'1111122,1111122,1199999999' 
TABS,ioos:station:wmo:42047:1,2009-01-01T16:00:00Z,27.8966,-93.5973,2.0,64.8446275661,1.99964996937,-99999.0,'1111122,1111122,1199999999' 
TABS,ioos:station:wmo:42047:1,2009-01-01T16:30:00Z,27.8966,-93.5973,2.0,0.0,2.0,-99999.0,'1111122,1114422,1199999999' 
TABS,ioos:station:wmo:42047:1,2009-01-01T17:00:00Z,27.8966,-93.5973,2.0,27.0777514029,1.99912480851,-99999.0,'1111122,1111122,1199999999' 
TABS,ioos:station:wmo:42047:1,2009-01-01T17:30:00Z,27.8966,-93.5973,2.0,34.9216178836,4.00031248779,-99999.0,'1111122,1111122,1199999999' 
TABS,ioos:station:wmo:42047:1,2009-01-01T18:00:00Z,27.8966,-93.5973,2.0,0.0,1.0,-99999.0,'1113322,1114422,1199999999' 
TABS,ioos:station:wmo:42047:1,2009-01-01T18:30:00Z,27.8966,-93.5973,2.0,41.0780574936,2.99808272067,-99999.0,'1111122,1111122,1199999999' 
TABS,ioos:station:wmo:42047:1,2009-01-01T19:00:00Z,27.8966,-93.5973,2.0,230.004837819,77.0005207775,-99999.0,'1111122,1111122,1199999999' 
TABS,ioos:station:wmo:42047:1,2009-01-01T19:30:00Z,27.8966,-93.5973,2.0,12.0067083094,4.9993699603,-99999.0,'1111122,1111122,1199999999' 
TABS,ioos:station:wmo:42047:1,2009-01-01T20:00:00Z,27.8966,-93.5973,2.0,31.9952638547,6.0017080902,-99999.0,'1111122,1111122,1199999999' 
TABS,ioos:station:wmo:42047:1,2009-01-01T20:30:00Z,27.8966,-93.5973,2.0,54.0231297129,5.00460787675,-99999.0,'1111122,1111122,1199999999' 
TABS,ioos:station:wmo:42047:1,2009-01-01T21:00:00Z,27.8966,-93.5973,2.0,15.079133975,3.99764930928,-99999.0,'1111122,1111122,1199999999' 
TABS,ioos:station:wmo:42047:1,2009-01-01T21:30:00Z,27.8966,-93.5973,2.0,0.0,5.0,-99999.0,'1111122,1114422,1199999999' 
TABS,ioos:station:wmo:42047:1,2009-01-01T22:00:00Z,27.8966,-93.5973,2.0,12.0067083094,4.9993699603,-99999.0,'1111122,1111122,1199999999' 
TABS,ioos:station:wmo:42047:1,2009-01-01T22:30:00Z,27.8966,-93.5973,2.0,10.9540626434,5.99930829346,-99999.0,'1111122,1111122,1199999999' 
TABS,ioos:station:wmo:42047:1,2009-01-01T23:00:00Z,27.8966,-93.5973,2.0,10.9540626434,5.99930829346,-99999.0,'1111122,1111122,1199999999' 
TABS,ioos:station:wmo:42047:1,2009-01-01T23:30:00Z,27.8966,-93.5973,2.0,0.0,4.0,-99999.0,'1111122,1114422,1199999999' 
TABS,ioos:station:wmo:42047:1,2009-01-02T00:00:00Z,27.8966,-93.5973,2.0,349.972091233,4.99632865212,-99999.0,'1111122,1111122,1199999999' 
TABS,ioos:station:wmo:42047:1,2009-01-02T00:30:00Z,27.8966,-93.5973,2.0,353.027230714,7.00178548657,-99999.0,'1111122,1111122,1199999999' 
TABS,ioos:station:wmo:42047:1,2009-01-02T01:00:00Z,27.8966,-93.5973,2.0,353.027230714,7.00178548657,-99999.0,'1111122,1111122,1199999999' 
TABS,ioos:station:wmo:42047:1,2009-01-02T01:30:00Z,27.8966,-93.5973,2.0,342.048038931,6.00221625735,-99999.0,'1111122,1111122,1199999999' 
TABS,ioos:station:wmo:42047:1,2009-01-02T02:00:00Z,27.8966,-93.5973,2.0,346.989269274,7.99525484272,-99999.0,'1111122,1111122,1199999999' 
TABS,ioos:station:wmo:42047:1,2009-01-02T02:30:00Z,27.8966,-93.5973,2.0,342.048038931,6.00221625735,-99999.0,'1111122,1111122,1199999999' 
TABS,ioos:station:wmo:42047:1,2009-01-02T03:00:00Z,27.8966,-93.5973,2.0,353.976006918,8.00419889808,-99999.0,'1111122,1111122,1199999999' 
TABS,ioos:station:wmo:42047:1,2009-01-02T03:30:00Z,27.8966,-93.5973,2.0,337.985892541,8.00352422374,-99999.0,'1111122,1111122,1199999999' 
TABS,ioos:station:wmo:42047:1,2009-01-02T04:00:00Z,27.8966,-93.5973,2.0,348.003100692,8.99649376146,-99999.0,'1111122,1111122,1199999999' 
TABS,ioos:station:wmo:42047:1,2009-01-02T04:30:00Z,27.8966,-93.5973,2.0,0.0,9.0,-99999.0,'1111122,1114422,1199999999' 
TABS,ioos:station:wmo:42047:1,2009-01-02T05:00:00Z,27.8966,-93.5973,2.0,352.99341213,15.0020331955,-99999.0,'1111122,1111122,1199999999' 
TABS,ioos:station:wmo:42047:1,2009-01-02T05:30:00Z,27.8966,-93.5973,2.0,0.0,10.0,-99999.0,'1111122,1114422,1199999999' 
TABS,ioos:station:wmo:42047:1,2009-01-02T06:00:00Z,27.8966,-93.5973,2.0,355.987828845,10.0045189789,-99999.0,'1111122,1111122,1199999999' 
TABS,ioos:station:wmo:42047:1,2009-01-02T06:30:00Z,27.8966,-93.5973,2.0,350.9851693,11.9982040323,-99999.0,'1111122,1111122,1199999999' 
TABS,ioos:station:wmo:42047:1,2009-01-02T07:00:00Z,27.8966,-93.5973,2.0,343.975890342,9.99848488522,-99999.0,'1111122,1111122,1199999999' 
TABS,ioos:station:wmo:42047:1,2009-01-02T07:30:00Z,27.8966,-93.5973,2.0,0.0,11.0,-99999.0,'1111122,1114422,1199999999' 
TABS,ioos:station:wmo:42047:1,2009-01-02T08:00:00Z,27.8966,-93.5973,2.0,0.0,13.0,-99999.0,'1111122,1114422,1199999999' 
TABS,ioos:station:wmo:42047:1,2009-01-02T08:30:00Z,27.8966,-93.5973,2.0,11.0035408517,11.0022724925,-99999.0,'1111122,1111122,1199999999' 
TABS,ioos:station:wmo:42047:1,2009-01-02T09:00:00Z,27.8966,-93.5973,2.0,5.98150438546,11.9953074158,-99999.0,'1111122,1111122,1199999999' 
TABS,ioos:station:wmo:42047:1,2009-01-02T09:30:00Z,27.8966,-93.5973,2.0,11.0035408517,11.0022724925,-99999.0,'1111122,1111122,1199999999' 
TABS,ioos:station:wmo:42047:1,2009-01-02T10:00:00Z,27.8966,-93.5973,2.0,13.9827759774,12.9950644477,-99999.0,'1111122,1111122,1199999999' 
TABS,ioos:station:wmo:42047:1,2009-01-02T10:30:00Z,27.8966,-93.5973,2.0,24.0031902521,10.0052236357,-99999.0,'1111122,1111122,1199999999' 
TABS,ioos:station:wmo:42047:1,2009-01-02T11:00:00Z,27.8966,-93.5973,2.0,21.0032227114,11.9970829788,-99999.0,'1111122,1111122,1199999999' 
TABS,ioos:station:wmo:42047:1,2009-01-02T11:30:00Z,27.8966,-93.5973,2.0,24.0031902521,10.0052236357,-99999.0,'1111122,1111122,1199999999' 
TABS,ioos:station:wmo:42047:1,2009-01-02T14:00:00Z,27.8966,-93.5973,2.0,58.9598054617,8.99853877027,-99999.0,'1111122,1111122,1199999999' 
TABS,ioos:station:wmo:42047:1,2009-01-02T14:30:00Z,27.8966,-93.5973,2.0,45.0,14.0007142675,-99999.0,'1111122,1111122,1199999999' 
TABS,ioos:station:wmo:42047:1,2009-01-02T15:00:00Z,27.8966,-93.5973,2.0,40.9973421126,16.0055115507,-99999.0,'1111122,1111122,1199999999' 
TABS,ioos:station:wmo:42047:1,2009-01-02T15:30:00Z,27.8966,-93.5973,2.0,53.0034087237,18.9940464357,-99999.0,'1111122,1111122,1199999999' 
TABS,ioos:station:wmo:42047:1,2009-01-02T16:00:00Z,27.8966,-93.5973,2.0,59.9959013875,16.9978939872,-99999.0,'1111122,1111122,1199999999' 
TABS,ioos:station:wmo:42047:1,2009-01-02T16:30:00Z,27.8966,-93.5973,2.0,58.9842247174,17.0006617518,-99999.0,'1111122,1111122,1199999999' 
TABS,ioos:station:wmo:42047:1,2009-01-02T18:00:00Z,27.8966,-93.5973,2.0,38.015660484,10.0019998,-99999.0,'1111122,1111122,1199999999' 
TABS,ioos:station:wmo:42047:1,2009-01-02T18:30:00Z,27.8966,-93.5973,2.0,276.000827078,66.0016636154,-99999.0,'1111122,1111122,1199999999' 
TABS,ioos:station:wmo:42047:1,2009-01-02T19:00:00Z,27.8966,-93.5973,2.0,32.0097218253,13.9983320435,-99999.0,'1111122,1111122,1199999999' 
TABS,ioos:station:wmo:42047:1,2009-01-02T19:30:00Z,27.8966,-93.5973,2.0,29.9963208064,13.0014460734,-99999.0,'1111122,1111122,1199999999' 
TABS,ioos:station:wmo:42047:1,2009-01-02T20:00:00Z,27.8966,-93.5973,2.0,22.9917134955,16.0011062118,-99999.0,'1111122,1111122,1199999999' 
TABS,ioos:station:wmo:42047:1,2009-01-02T20:30:00Z,27.8966,-93.5973,2.0,24.0027498998,13.0045568936,-99999.0,'1111122,1111122,1199999999' 
TABS,ioos:station:wmo:42047:1,2009-01-02T21:00:00Z,27.8966,-93.5973,2.0,22.9944241215,14.0026069001,-99999.0,'1111122,1111122,1199999999' 
TABS,ioos:station:wmo:42047:1,2009-01-02T21:30:00Z,27.8966,-93.5973,2.0,18.0207072959,13.9966067316,-99999.0,'1111122,1111122,1199999999' 
TABS,ioos:station:wmo:42047:1,2009-01-02T22:00:00Z,27.8966,-93.5973,2.0,17.0184930534,11.001763495,-99999.0,'1111122,1111122,1199999999' 
TABS,ioos:station:wmo:42047:1,2009-01-02T22:30:00Z,27.8966,-93.5973,2.0,18.0207072959,13.9966067316,-99999.0,'1111122,1111122,1199999999' 
TABS,ioos:station:wmo:42047:1,2009-01-02T23:00:00Z,27.8966,-93.5973,2.0,25.9886972772,12.0038202252,-99999.0,'1111122,1111122,1199999999' 
TABS,ioos:station:wmo:42047:1,2009-01-02T23:30:00Z,27.8966,-93.5973,2.0,13.9827759774,12.9950644477,-99999.0,'1111122,1111122,1199999999' 
TABS,ioos:station:wmo:42047:1,2009-01-03T00:00:00Z,27.8966,-93.5973,2.0,20.0094545989,13.0050336409,-99999.0,'1111122,1111122,1199999999' 
TABS,ioos:station:wmo:42047:1,2009-01-03T00:30:00Z,27.8966,-93.5973,2.0,34.9953725934,14.0014927776,-99999.0,'1111122,1111122,1199999999' 
TABS,ioos:station:wmo:42047:1,2009-01-03T01:00:00Z,27.8966,-93.5973,2.0,31.9952638547,12.0034161804,-99999.0,'1111122,1111122,1199999999' 
TABS,ioos:station:wmo:42047:1,2009-01-03T01:30:00Z,27.8966,-93.5973,2.0,38.015660484,10.0019998,-99999.0,'1111122,1111122,1199999999' 
TABS,ioos:station:wmo:42047:1,2009-01-03T02:00:00Z,27.8966,-93.5973,2.0,41.9824804361,8.99980555346,-99999.0,'1111122,1111122,1199999999' 
TABS,ioos:station:wmo:42047:1,2009-01-03T02:30:00Z,27.8966,-93.5973,2.0,40.9973421126,8.00275577536,-99999.0,'1111122,1111122,1199999999' 
TABS,ioos:station:wmo:42047:1,2009-01-03T03:00:00Z,27.8966,-93.5973,2.0,49.958041345,8.99978888641,-99999.0,'1111122,1111122,1199999999' 
TABS,ioos:station:wmo:42047:1,2009-01-03T03:30:00Z,27.8966,-93.5973,2.0,45.0,8.00444876303,-99999.0,'1111122,1111122,1199999999' 
TABS,ioos:station:wmo:42047:1,2009-01-03T04:00:00Z,27.8966,-93.5973,2.0,60.0183606312,6.00333240792,-99999.0,'1111122,1111122,1199999999' 
TABS,ioos:station:wmo:42047:1,2009-01-03T04:30:00Z,27.8966,-93.5973,2.0,57.0138879994,6.99807116283,-99999.0,'1111122,1111122,1199999999' 
TABS,ioos:station:wmo:42047:1,2009-01-03T05:00:00Z,27.8966,-93.5973,2.0,52.9963678666,5.99801633876,-99999.0,'1111122,1111122,1199999999' 
TABS,ioos:station:wmo:42047:1,2009-01-03T05:30:00Z,27.8966,-93.5973,2.0,45.0,5.99626550446,-99999.0,'1111122,1111122,1199999999' 
TABS,ioos:station:wmo:42047:1,2009-01-03T06:00:00Z,27.8966,-93.5973,2.0,45.0,5.99626550446,-99999.0,'1111122,1111122,1199999999' 
TABS,ioos:station:wmo:42047:1,2009-01-03T06:30:00Z,27.8966,-93.5973,2.0,52.9963678666,5.99801633876,-99999.0,'1111122,1111122,1199999999' 
TABS,ioos:station:wmo:42047:1,2009-01-03T07:00:00Z,27.8966,-93.5973,2.0,52.9963678666,5.99801633876,-99999.0,'1111122,1111122,1199999999' 
TABS,ioos:station:wmo:42047:1,2009-01-03T07:30:00Z,27.8966,-93.5973,2.0,39.047540562,6.00033332407,-99999.0,'1111122,1111122,1199999999' 
TABS,ioos:station:wmo:42047:1,2009-01-03T08:00:00Z,27.8966,-93.5973,2.0,27.0040907028,7.00357051796,-99999.0,'1111122,1111122,1199999999' 
TABS,ioos:station:wmo:42047:1,2009-01-03T08:30:00Z,27.8966,-93.5973,2.0,14.9913741017,8.00236215127,-99999.0,'1111122,1111122,1199999999' 
TABS,ioos:station:wmo:42047:1,2009-01-03T09:00:00Z,27.8966,-93.5973,2.0,21.0329401615,8.99960554691,-99999.0,'1111122,1111122,1199999999' 
TABS,ioos:station:wmo:42047:1,2009-01-03T09:30:00Z,27.8966,-93.5973,2.0,32.9838379073,9.00069441765,-99999.0,'1111122,1111122,1199999999' 
TABS,ioos:station:wmo:42047:1,2009-01-03T10:00:00Z,27.8966,-93.5973,2.0,23.9697609354,7.99991249952,-99999.0,'1111122,1111122,1199999999' 
TABS,ioos:station:wmo:42047:1,2009-01-03T10:30:00Z,27.8966,-93.5973,2.0,6.00082707772,11.0002772692,-99999.0,'1111122,1111122,1199999999' 
TABS,ioos:station:wmo:42047:1,2009-01-03T11:00:00Z,27.8966,-93.5973,2.0,24.0012809656,8.99799977773,-99999.0,'1111122,1111122,1199999999' 
TABS,ioos:station:wmo:42047:1,2009-01-03T11:30:00Z,27.8966,-93.5973,2.0,7.98600764503,8.99725513698,-99999.0,'1111122,1111122,1199999999' 
TABS,ioos:station:wmo:42047:1,2009-01-03T12:00:00Z,27.8966,-93.5973,2.0,0.0,9.0,-99999.0,'1111122,1114422,1199999999' 
TABS,ioos:station:wmo:42047:1,2009-01-03T12:30:00Z,27.8966,-93.5973,2.0,0.0,10.0,-99999.0,'1111122,1114422,1199999999' 
TABS,ioos:station:wmo:42047:1,2009-01-03T13:00:00Z,27.8966,-93.5973,2.0,6.02399308232,10.0052486226,-99999.0,'1111122,1111122,1199999999' 
TABS,ioos:station:wmo:42047:1,2009-01-03T13:30:00Z,27.8966,-93.5973,2.0,0.0,11.0,-99999.0,'1111122,1114422,1199999999' 
TABS,ioos:station:wmo:42047:1,2009-01-03T14:00:00Z,27.8966,-93.5973,2.0,6.02399308232,10.0052486226,-99999.0,'1111122,1111122,1199999999' 
TABS,ioos:station:wmo:42047:1,2009-01-03T14:30:00Z,27.8966,-93.5973,2.0,7.98600764503,8.99725513698,-99999.0,'1111122,1111122,1199999999' 
TABS,ioos:station:wmo:42047:1,2009-01-03T15:00:00Z,27.8966,-93.5973,2.0,6.02399308232,10.0052486226,-99999.0,'1111122,1111122,1199999999' 
TABS,ioos:station:wmo:42047:1,2009-01-03T15:30:00Z,27.8966,-93.5973,2.0,7.98600764503,8.99725513698,-99999.0,'1111122,1111122,1199999999' 
TABS,ioos:station:wmo:42047:1,2009-01-03T16:00:00Z,27.8966,-93.5973,2.0,12.0067083094,9.99873992061,-99999.0,'1111122,1111122,1199999999' 
TABS,ioos:station:wmo:42047:1,2009-01-03T16:30:00Z,27.8966,-93.5973,2.0,0.0,9.0,-99999.0,'1111122,1114422,1199999999' 
TABS,ioos:station:wmo:42047:1,2009-01-03T17:00:00Z,27.8966,-93.5973,2.0,353.976006918,8.00419889808,-99999.0,'1111122,1111122,1199999999' 
TABS,ioos:station:wmo:42047:1,2009-01-03T17:30:00Z,27.8966,-93.5973,2.0,6.02399308232,10.0052486226,-99999.0,'1111122,1111122,1199999999' 
TABS,ioos:station:wmo:42047:1,2009-01-03T18:00:00Z,27.8966,-93.5973,2.0,6.00082707772,11.0002772692,-99999.0,'1111122,1111122,1199999999' 
TABS,ioos:station:wmo:42047:1,2009-01-03T18:30:00Z,27.8966,-93.5973,2.0,6.02399308232,10.0052486226,-99999.0,'1111122,1111122,1199999999' 
TABS,ioos:station:wmo:42047:1,2009-01-03T19:00:00Z,27.8966,-93.5973,2.0,11.0035408517,11.0022724925,-99999.0,'1111122,1111122,1199999999' 
TABS,ioos:station:wmo:42047:1,2009-01-03T19:30:00Z,27.8966,-93.5973,2.0,357.001113615,12.9977998138,-99999.0,'1111122,1111122,1199999999' 
TABS,ioos:station:wmo:42047:1,2009-01-03T20:00:00Z,27.8966,-93.5973,2.0,4.98692316122,12.9992076682,-99999.0,'1111122,1111122,1199999999' 
TABS,ioos:station:wmo:42047:1,2009-01-03T20:30:00Z,27.8966,-93.5973,2.0,4.98370017601,16.0004906175,-99999.0,'1111122,1111122,1199999999' 
TABS,ioos:station:wmo:42047:1,2009-01-03T21:00:00Z,27.8966,-93.5973,2.0,4.99809707682,14.0032460523,-99999.0,'1111122,1111122,1199999999' 
TABS,ioos:station:wmo:42047:1,2009-01-03T21:30:00Z,27.8966,-93.5973,2.0,0.0,14.0,-99999.0,'1111122,1114422,1199999999' 
TABS,ioos:station:wmo:42047:1,2009-01-03T22:00:00Z,27.8966,-93.5973,2.0,173.017156509,12.9963995014,-99999.0,'1111122,1111122,1199999999' 
TABS,ioos:station:wmo:42047:1,2009-01-03T22:30:00Z,27.8966,-93.5973,2.0,4.98692316122,12.9992076682,-99999.0,'1111122,1111122,1199999999' 
TABS,ioos:station:wmo:42047:1,2009-01-03T23:00:00Z,27.8966,-93.5973,2.0,11.0009371491,12.000520822,-99999.0,'1111122,1111122,1199999999' 
TABS,ioos:station:wmo:42047:1,2009-01-03T23:30:00Z,27.8966,-93.5973,2.0,0.0,12.0,-99999.0,'1111122,1114422,1199999999' 
TABS,ioos:station:wmo:42047:1,2009-01-04T00:00:00Z,27.8966,-93.5973,2.0,8.98408347927,12.9994807589,-99999.0,'1111122,1111122,1199999999' 
TABS,ioos:station:wmo:42047:1,2009-01-04T00:30:00Z,27.8966,-93.5973,2.0,6.00082707772,11.0002772692,-99999.0,'1111122,1111122,1199999999' 
TABS,ioos:station:wmo:42047:1,2009-01-04T01:00:00Z,27.8966,-93.5973,2.0,7.98600764503,8.99725513698,-99999.0,'1111122,1111122,1199999999' 
TABS,ioos:station:wmo:42047:1,2009-01-04T01:30:00Z,27.8966,-93.5973,2.0,27.0204476837,9.00269404123,-99999.0,'1111122,1111122,1199999999' 
TABS,ioos:station:wmo:42047:1,2009-01-04T02:00:00Z,27.8966,-93.5973,2.0,14.020799862,8.99807201572,-99999.0,'1111122,1111122,1199999999' 
TABS,ioos:station:wmo:42047:1,2009-01-04T02:30:00Z,27.8966,-93.5973,2.0,20.0048547765,9.00322164561,-99999.0,'1111122,1111122,1199999999' 
TABS,ioos:station:wmo:42047:1,2009-01-04T03:00:00Z,27.8966,-93.5973,2.0,23.9697609354,7.99991249952,-99999.0,'1111122,1111122,1199999999' 
TABS,ioos:station:wmo:42047:1,2009-01-04T03:30:00Z,27.8966,-93.5973,2.0,41.9824804361,8.99980555346,-99999.0,'1111122,1111122,1199999999' 
TABS,ioos:station:wmo:42047:1,2009-01-04T04:00:00Z,27.8966,-93.5973,2.0,49.958041345,8.99978888641,-99999.0,'1111122,1111122,1199999999' 
TABS,ioos:station:wmo:42047:1,2009-01-04T04:30:00Z,27.8966,-93.5973,2.0,53.9894745978,10.0011249367,-99999.0,'1111122,1111122,1199999999' 
TABS,ioos:station:wmo:42047:1,2009-01-04T05:00:00Z,27.8966,-93.5973,2.0,62.0156603477,13.0000153846,-99999.0,'1111122,1111122,1199999999' 
TABS,ioos:station:wmo:42047:1,2009-01-04T05:30:00Z,27.8966,-93.5973,2.0,326.985137439,8.0021059728,-99999.0,'1111122,1111122,1199999999' 
TABS,ioos:station:wmo:42047:1,2009-01-04T06:00:00Z,27.8966,-93.5973,2.0,59.9944966715,11.9980040007,-99999.0,'1111122,1111122,1199999999' 
TABS,ioos:station:wmo:42047:1,2009-01-04T06:30:00Z,27.8966,-93.5973,2.0,57.017608408,11.0033176815,-99999.0,'1111122,1111122,1199999999' 
TABS,ioos:station:wmo:42047:1,2009-01-04T07:00:00Z,27.8966,-93.5973,2.0,53.9894745978,10.0011249367,-99999.0,'1111122,1111122,1199999999' 
TABS,ioos:station:wmo:42047:1,2009-01-04T07:30:00Z,27.8966,-93.5973,2.0,49.958041345,8.99978888641,-99999.0,'1111122,1111122,1199999999' 
TABS,ioos:station:wmo:42047:1,2009-01-04T08:00:00Z,27.8966,-93.5973,2.0,56.0096799045,8.99736072412,-99999.0,'1111122,1111122,1199999999' 
TABS,ioos:station:wmo:42047:1,2009-01-04T08:30:00Z,27.8966,-93.5973,2.0,45.0,8.00444876303,-99999.0,'1111122,1111122,1199999999' 
TABS,ioos:station:wmo:42047:1,2009-01-04T09:00:00Z,27.8966,-93.5973,2.0,42.0143228396,10.9962948305,-99999.0,'1111122,1111122,1199999999' 
TABS,ioos:station:wmo:42047:1,2009-01-04T09:30:00Z,27.8966,-93.5973,2.0,38.9852102901,10.999495443,-99999.0,'1111122,1111122,1199999999' 
TABS,ioos:station:wmo:42047:1,2009-01-04T10:00:00Z,27.8966,-93.5973,2.0,31.9952638547,12.0034161804,-99999.0,'1111122,1111122,1199999999' 
TABS,ioos:station:wmo:42047:1,2009-01-04T10:30:00Z,27.8966,-93.5973,2.0,32.0097218253,13.9983320435,-99999.0,'1111122,1111122,1199999999' 
TABS,ioos:station:wmo:42047:1,2009-01-04T11:00:00Z,27.8966,-93.5973,2.0,24.0027498998,13.0045568936,-99999.0,'1111122,1111122,1199999999' 
TABS,ioos:station:wmo:42047:1,2009-01-04T11:30:00Z,27.8966,-93.5973,2.0,24.0027498998,13.0045568936,-99999.0,'1111122,1111122,1199999999' 
TABS,ioos:station:wmo:42047:1,2009-01-04T12:00:00Z,27.8966,-93.5973,2.0,19.9861652332,16.0038276672,-99999.0,'1111122,1111122,1199999999' 
TABS,ioos:station:wmo:42047:1,2009-01-04T12:30:00Z,27.8966,-93.5973,2.0,26.9988030934,12.9963995014,-99999.0,'1111122,1111122,1199999999' 
TABS,ioos:station:wmo:42047:1,2009-01-04T13:00:00Z,27.8966,-93.5973,2.0,32.0097218253,13.9983320435,-99999.0,'1111122,1111122,1199999999' 
TABS,ioos:station:wmo:42047:1,2009-01-04T13:30:00Z,27.8966,-93.5973,2.0,38.0078036526,13.9987606594,-99999.0,'1111122,1111122,1199999999' 
TABS,ioos:station:wmo:42047:1,2009-01-04T14:00:00Z,27.8966,-93.5973,2.0,35.9817361707,11.9994416537,-99999.0,'1111122,1111122,1199999999' 
TABS,ioos:station:wmo:42047:1,2009-01-04T14:30:00Z,27.8966,-93.5973,2.0,23.0003360124,11.0048580182,-99999.0,'1111122,1111122,1199999999' 
TABS,ioos:station:wmo:42047:1,2009-01-04T15:00:00Z,27.8966,-93.5973,2.0,25.9886972772,12.0038202252,-99999.0,'1111122,1111122,1199999999' 
TABS,ioos:station:wmo:42047:1,2009-01-04T15:30:00Z,27.8966,-93.5973,2.0,34.9953725934,14.0014927776,-99999.0,'1111122,1111122,1199999999' 
TABS,ioos:station:wmo:42047:1,2009-01-04T16:00:00Z,27.8966,-93.5973,2.0,33.0053874314,12.997553616,-99999.0,'1111122,1111122,1199999999' 
TABS,ioos:station:wmo:42047:1,2009-01-04T16:30:00Z,27.8966,-93.5973,2.0,22.9944241215,14.0026069001,-99999.0,'1111122,1111122,1199999999' 
TABS,ioos:station:wmo:42047:1,2009-01-04T17:00:00Z,27.8966,-93.5973,2.0,28.9915316482,14.9995766607,-99999.0,'1111122,1111122,1199999999' 
TABS,ioos:station:wmo:42047:1,2009-01-04T17:30:00Z,27.8966,-93.5973,2.0,22.9917134955,16.0011062118,-99999.0,'1111122,1111122,1199999999' 